Вернуться в каталог

STARLINK-36631

АктивенСвязьSSO
NORAD 67602·PAYLOAD·🇺🇸 United States

Запущен Jan 29, 2026 с Vandenberg Space Force Base

Loading…

Ближайшие Пролёты (ближайшие 24 часа)

TLE

СвежийSource: CelesTrak SupGP

Эпоха: Sep 14, 2026, 22:29 UTC

1 67602C 26018P   26257.93729167  .00000654  00000+0  20299-4 0  2571
2 67602  97.2846 321.5339 0000881  87.0395 198.1913 15.33436076    15

Отслеживайте STARLINK-36631 в реальном времени с AllMySat

Download on the App Store